Location: Chuathbaluk
(61.5726°N, 159.2454°W)
Time: 14:27:52
(UTC+00:00)

DELFI C3 - Pass Details

Date: 26 January 2021
Orbit: 531 x 550 km, 97.4° (Epoch: 04 March)

Event Time Altitude Azimuth Distance (km) Brightness Sun altitude
Exits shadow 07:04:44 22° 284° (WNW) 1,224 ? -32.1°
Drops below altitude 10° 07:07:23 10° 324° (NW) 1,844 ? -32.4°
Sets 07:09:52 0° 339° (NNW) 2,744 ? -32.7°
